Location: ???????
(56.2167°N, 38.0500°E)
Time: 02:41:54
(UTC+00:00)

H-2A R/B - Pass Details

Date: 19 May 2025
Orbit: 492 x 574 km, 98.2° (Epoch: 15 June)

Event Time Altitude Azimuth Distance (km) Brightness Sun altitude
Exits shadow 22:52:00 17° 212° (SSW) 1,426 3.8 -11.6°
Maximum altitude 22:54:20 30° 263° (W) 992 3.4 -11.5°
Drops below altitude 10° 22:57:48 10° 326° (NNW) 1,800 5.4 -11.3°
Sets 23:00:05 0° 338° (NNW) 2,680 6.6 -11.2°
